TimeEAT,TemperatureF,Dew PointF,Humidity,Sea Level PressureIn,VisibilityMPH,Wind Direction,Wind SpeedMPH,Gust SpeedMPH,PrecipitationIn,Events,Conditions,WindDirDegrees,DateUTC
12:00 AM,80.6,75.2,84,29.86,6.2,ESE,6.9,-,N/A,,Mostly Cloudy,120,2012-11-19 21:00:00
1:00 AM,80.6,77.0,89,29.86,6.2,ESE,3.5,-,N/A,,Mostly Cloudy,120,2012-11-19 22:00:00
2:00 AM,80.6,75.2,84,29.83,6.2,SE,3.5,-,N/A,,Scattered Clouds,130,2012-11-19 23:00:00
3:00 AM,81,76,80,29.84,19,ESE,4.6,,,,Partly Cloudy,110,2012-11-20 00:00:00
6:00 AM,78.8,77.0,94,29.86,6.2,Calm,Calm,-,N/A,,Scattered Clouds,0,2012-11-20 03:00:00
7:00 AM,78.8,77.0,94,29.89,6.2,Calm,Calm,-,N/A,,Mostly Cloudy,0,2012-11-20 04:00:00
8:00 AM,80.6,77.0,89,29.89,6.2,North,3.5,-,N/A,,Mostly Cloudy,10,2012-11-20 05:00:00
9:00 AM,83,75,72,29.92,19,North,5.8,,,,Mostly Cloudy,0,2012-11-20 06:00:00
9:00 AM,82.4,75.2,79,29.92,6.2,North,5.8,-,N/A,,Mostly Cloudy,360,2012-11-20 06:00:00
10:00 AM,86.0,75.2,70,29.92,6.2,Calm,Calm,-,N/A,,Mostly Cloudy,0,2012-11-20 07:00:00
11:00 AM,87.8,75.2,66,29.89,6.2,NNE,3.5,-,N/A,,Scattered Clouds,30,2012-11-20 08:00:00
1:00 PM,87.8,75.2,66,29.83,6.2,East,12.7,-,N/A,,Scattered Clouds,90,2012-11-20 10:00:00
2:00 PM,87.8,75.2,66,29.80,6.2,East,15.0,-,N/A,,Scattered Clouds,90,2012-11-20 11:00:00
3:00 PM,86,75,63,29.78,19,ESE,13.8,,,,Partly Cloudy,120,2012-11-20 12:00:00
3:00 PM,86.0,75.2,70,29.77,6.2,ESE,13.8,-,N/A,,Scattered Clouds,120,2012-11-20 12:00:00
4:00 PM,86.0,75.2,70,29.77,6.2,ESE,12.7,-,N/A,,Scattered Clouds,120,2012-11-20 13:00:00
5:00 PM,84.2,75.2,74,29.77,6.2,East,8.1,-,N/A,,Mostly Cloudy,100,2012-11-20 14:00:00
6:00 PM,82.4,75.2,79,29.80,6.2,ESE,6.9,-,N/A,,Mostly Cloudy,120,2012-11-20 15:00:00
7:00 PM,82.4,75.2,79,29.80,6.2,East,9.2,-,N/A,,Mostly Cloudy,90,2012-11-20 16:00:00
8:00 PM,80.6,75.2,84,29.83,6.2,ESE,9.2,-,N/A,,Scattered Clouds,120,2012-11-20 17:00:00
9:00 PM,81,76,79,29.84,19,ESE,4.6,,,,Mostly Cloudy,120,2012-11-20 18:00:00
9:00 PM,80.6,75.2,84,29.83,6.2,ESE,4.6,-,N/A,,Mostly Cloudy,120,2012-11-20 18:00:00
10:00 PM,80.6,77.0,89,29.86,6.2,East,4.6,-,N/A,Rain,Light Rain Showers,90,2012-11-20 19:00:00
11:30 PM,80.6,75.2,84,29.86,6.2,Calm,Calm,-,N/A,,Partly Cloudy,0,2012-11-20 20:30:00